Flag for Austria Weather past 2 weeks in Gmünd, Lower Austria, Austria

Now
57 °F

Cool.


Feels Like: 57 °F
Forecast: 51 / 55 °F
Wind: 1 mph from East

Location: Retz

Current Time: Sep 30, 2014 at 6:26:10 PM

Latest Report: Sep 30, 2014 at 5:00 PM


Visibility: N/A

Pressure: 30.27 "Hg

Humidity: 91%

Dew point: 54 °F

Location of GmündLocation

Historic Weather in Gmünd — Graph

°F

Gmünd temperature yesterday

Maximum temperature yesterday: 55 °F (at 12:00 AM)
Minimum temperature yesterday: 49 °F (at 11:00 PM)
Average temperature yesterday: 52 °F

Past Weeks' High & Low Weather Summary

 TemperatureHumidityPressure
High75 °F (Sep 20, 2:00 PM)100% (Sep 30, 7:00 AM)30.40 "Hg (Sep 30, 7:00 AM)
Low41 °F (Sep 24, 5:00 AM)55% (Sep 18, 2:00 PM)29.79 "Hg (Sep 22, 2:00 AM)
Average57 °F81%30.08 "Hg
* Reported Sep 15 5:00 PM — Sep 30 5:00 PM, Gmünd, Weather by CustomWeather, © 2014

Note: Actual official high and low records may vary slightly from our data, if they occured in-between our weather recording intervals... More about our weather records

Advertising

Gmünd weather history for previous 24 hours

 ConditionsComfort  
Time TempWeatherWind HumidityBarometerVisibility
5:00 PM
Sep 30
57 °FCool.1 mph91%30.27 "HgN/A
4:00 PM56 °FCool.No wind91%30.28 "HgN/A
3:00 PM55 °FCool.1 mph96%30.29 "HgN/A
2:00 PM54 °FCool.2 mph98%30.29 "HgN/A
1:00 PM54 °FCool.No wind100%30.30 "HgN/A
12:00 PM53 °FCool.1 mph99%30.30 "HgN/A
11:00 AM52 °FCool.1 mph99%30.31 "HgN/A
10:00 AM51 °FCool.1 mph100%30.32 "HgN/A
9:00 AM50 °FCool.2 mph99%30.31 "HgN/A
8:00 AM50 °FFog.2 mph100%30.31 "Hg1 mi
7:00 AM49 °FFog.No wind100%30.31 "Hg1 mi
6:00 AM49 °FCool.No wind99%30.30 "HgN/A
5:00 AM49 °FCool.No wind99%30.30 "HgN/A
4:00 AM47 °FCool.No wind99%30.31 "HgN/A
3:00 AM46 °FCool.1 mph99%30.31 "HgN/A
2:00 AM47 °FCool.1 mph99%30.31 "HgN/A
1:00 AM47 °FCool.No wind99%30.31 "HgN/A
12:00 AM48 °FCool.No wind99%30.31 "HgN/A
11:00 PM
Sep 29
49 °FCool.2 mph98%30.31 "HgN/A
10:00 PM49 °FCool.1 mph99%30.32 "HgN/A
9:00 PM50 °FCool.2 mph99%30.31 "HgN/A
8:00 PM51 °FPassing clouds.2 mph97%30.31 "Hg3 mi
7:00 PM51 °FCool.3 mph95%30.31 "HgN/A
6:00 PM54 °FCool.2 mph91%30.31 "HgN/A
Weather by CustomWeather, © 2014

See weather overviewHow to use our weather pages